This demonstration page uses our WeatherBlox Daily Observations layout. Learn more.

Left ArrowRight Arrow

Hourly Observations for June 12, 2021

Temp ( °F °C ) Dew Point ( °F °C ) Humidity (%) Winds ( mph kmh ) Pressure ( in mb ) Visibility ( mi km ) Precip ( " mm )
12:23 am 00:23 Cloudy with Light Rain 74 23.3 72 22.2 94 94 E 3 6 29.74 1007 6 10 0.00 0.00
12:59 am 00:59 Cloudy 74 23.3 72 22.2 94 94 Calm 29.71 1006 7 11 0.00 0.00
1:59 am 01:59 Cloudy 74 23.3 72 22.2 94 94 ENE 3 6 29.71 1006 7 11 0.00 0.00
2:05 am 02:05 Cloudy with Mist and Fog 74 23.3 72 22.2 94 94 NE 5 7 29.71 1006 6 10 0.00 0.00
2:59 am 02:59 Cloudy with Mist and Fog 74 23.3 71 21.7 91 91 NE 7 11 29.69 1005 5 8 0.00 0.00
3:59 am 03:59 Cloudy with Mist and Fog 73 22.8 71 21.7 94 94 NE 9 15 29.69 1005 3 5 0.00 0.00
4:59 am 04:59 Cloudy with Mist and Fog 73 22.8 70 21.1 90 90 NE 9 15 29.70 1006 1 2 0.00 0.00
5:12 am 05:12 Cloudy with Mist and Fog 73 22.8 70 21.1 90 90 NE 10 17 29.70 1006 2 3 0.00 0.00
5:49 am 05:49 Cloudy with Light Rain 72 22.2 70 21.1 94 94 NNE 9 15 29.71 1006 2 2 0.00 0.00
5:59 am 05:59 Cloudy with Light Rain 72 22.2 70 21.1 94 94 NNE 10 17 29.71 1006 1 2 0.00 0.00
6:25 am 06:25 Cloudy with Light Rain 72 22.2 69 20.6 91 91 NNE 10 17 29.71 1006 1 2 0.00 0.00
6:29 am 06:29 Cloudy with Light Rain 72 22.2 69 20.6 91 91 NNE 8 13 29.71 1006 2 3 0.00 0.00
6:59 am 06:59 Cloudy with Mist and Fog 71 21.7 69 20.6 94 94 NNE 12 19 29.71 1006 6 10 0.00 0.00
7:20 am 07:20 Cloudy with Mist and Fog 71 21.7 68 20 90 90 NNE 10 17 29.72 1006 3 5 0.00 0.00
7:50 am 07:50 Cloudy with Rain 71 21.7 68 20 90 90 NNE 12 19 29.73 1007 1 1 0.00 0.00
7:59 am 07:59 Cloudy with Rain 71 21.7 69 20.6 94 94 NNE 7 11 29.73 1007 1 1 0.00 0.00
8:02 am 08:02 Cloudy with Light Rain 71 21.7 69 20.6 94 94 NNE 13 20 29.74 1007 1 1 0.00 0.00
8:52 am 08:52 Cloudy with Light Rain 71 21.7 68 20 90 90 N 14 22 29.76 1008 1 1 0.00 0.00
8:55 am 08:55 Cloudy with Light Rain 72 22 68 20 88 88 N 15 24 29.76 1008 2 3 0.00 0.00
8:59 am 08:59 Cloudy with Light Rain 71 21.7 68 20 90 90 N 14 22 29.75 1008 2 3 0.00 0.00
9:31 am 09:31 Cloudy with Mist and Fog 71 21.7 68 20 90 90 NE 12 19 29.77 1008 3 5 0.00 0.00
9:59 am 09:59 Cloudy with Mist and Fog 72 22.2 68 20 87 87 NNE 12 19 29.76 1008 6 10 0.00 0.00
10:30 am 10:30 Cloudy with Mist and Fog 71 21.7 67 19.4 87 87 NE 13 20 29.78 1008 6 10 0.00 0.00
10:39 am 10:39 Cloudy 71 21.7 67 19.4 87 87 NNE 13 20 29.79 1009 8 13 0.00 0.00
10:59 am 10:59 Cloudy with Mist and Fog 70 21.1 67 19.4 90 90 NNE 16 26 29.79 1009 4 6 0.00 0.00
11:26 am 11:26 Cloudy 70 21.1 66 18.9 87 87 NNE 12 19 29.80 1009 9 14 0.00 0.00
11:39 am 11:39 Cloudy with Light Rain 70 21.1 66 18.9 87 87 NNE 16 26 29.81 1009 2 3 0.00 0.00
11:59 am 11:59 Cloudy with Mist and Fog 70 21.1 66 18.9 87 87 NE 15 24 29.81 1010 5 8 0.00 0.00
12:07 pm 12:07 Cloudy with Light Rain 70 21.1 65 18.3 84 84 NE 12 19 29.82 1010 3 4 0.00 0.00
12:29 pm 12:29 Cloudy with Light Rain 69 20.6 65 18.3 87 87 NE 12 19 29.82 1010 2 2 0.00 0.00
12:37 pm 12:37 Cloudy 70 21.1 65 18.3 84 84 NE 13 20 29.82 1010 8 13 0.00 0.00
12:50 pm 12:50 Cloudy 70 21.1 65 18.3 84 84 NE 14 22 29.82 1010 9 14 0.00 0.00
12:59 pm 12:59 Cloudy 70 21.1 65 18.3 84 84 NE 14 22 29.83 1010 10 16 0.00 0.00
1:59 pm 13:59 Cloudy 71 21.7 65 18.3 81 81 NE 14 22 29.83 1010 10 16 0.00 0.00
2:59 pm 14:59 Cloudy 69 20.6 65 18.3 87 87 NE 10 17 29.83 1010 7 11 0.00 0.00
3:59 pm 15:59 Cloudy with Mist and Fog 69 20.6 65 18.3 87 87 NNE 8 13 29.83 1010 4 6 0.00 0.00
4:32 pm 16:32 Cloudy 71 21.7 64 17.8 79 79 NE 7 11 29.83 1010 10 16 0.00 0.00
4:59 pm 16:59 Cloudy 72 22.2 62 16.7 71 71 NE 9 15 29.82 1010 10 16 0.00 0.00
5:24 pm 17:24 Cloudy 72 22.2 60 15.6 66 66 ENE 12 19 29.83 1010 10 16 0.00 0.00
5:59 pm 17:59 Mostly Cloudy 72 22.2 60 15.6 66 66 ENE 10 17 29.83 1010 10 16 0.00 0.00
6:59 pm 18:59 Mostly Cloudy 71 21.7 63 17.2 76 76 ENE 10 17 29.84 1010 9 14 0.00 0.00
7:59 pm 19:59 Mostly Cloudy 70 21.1 62 16.7 76 76 ENE 13 20 29.85 1011 9 14 0.00 0.00
8:59 pm 20:59 Mostly Cloudy 70 21.1 62 16.7 76 76 ENE 15 24 29.86 1011 10 16 0.00 0.00
9:59 pm 21:59 Mostly Cloudy 70 21.1 64 17.8 82 82 E 9 15 29.88 1012 9 14 0.00 0.00
10:51 pm 22:51 Mostly Cloudy 70 21.1 64 17.8 82 82 ENE 14 22 29.89 1012 9 14 0.00 0.00
10:59 pm 22:59 Mostly Cloudy 70 21.1 64 17.8 82 82 ENE 15 24 29.89 1012 9 14 0.00 0.00
11:59 pm 23:59 Mostly Cloudy 69 20.6 63 17.2 81 81 ENE 13 20 29.90 1013 9 14 0.00 0.00

Powered by AerisWeather